Wind_Speed
10 12 14 15 15 15 15 16 17 15 16 17 18 17 17 17 16 15 14 14 14 14 14 13 13 12 11 11 11 11 11 11 12 13 14 14 15 15 16 16 15 15 15 14
12 13 15 15 15 16 17 17 17 17 17 18 19 18 17 17 17 17 16 15 15 15 15 15 14 13 13 12 11 11 11 11 12 12 13 14 14 14 15 15 15 15 14 14
14 15 16 16 16 17 18 18 19 19 19 19 19 19 18 19 18 18 17 17 17 17 17 17 16 15 14 14 13 12 12 11 12 12 13 13 13 14 14 14 14 14 14 14
17 17 18 17 18 19 20 20 21 21 21 20 20 20 20 19 19 19 19 19 18 18 19 18 18 17 16 15 14 14 13 13 13 13 13 13 13 14 14 14 14 13 13 13
20 20 21 20 20 20 21 22 23 23 23 22 22 21 21 21 20 20 20 20 20 20 20 20 20 19 18 17 16 16 15 14 14 14 14 14 14 14 14 14 14 14 13 13
23 24 24 23 24 22 23 25 26 26 25 24 24 24 24 23 22 22 22 22 23 22 22 22 22 21 20 20 19 18 17 17 16 16 15 15 15 15 15 15 15 14 14 14
26 27 27 28 28 27 27 29 29 29 28 27 27 27 27 26 26 25 25 25 25 24 24 24 24 23 23 22 21 20 20 19 18 17 17 17 16 16 16 16 16 15 15 15
30 30 31 32 32 31 32 33 33 33 32 32 31 30 30 29 29 28 27 27 27 27 27 26 26 25 25 24 24 23 22 21 20 19 19 18 18 18 17 17 17 16 16 16
33 34 35 36 36 36 36 38 38 38 37 36 35 34 33 33 32 32 31 30 30 30 29 29 28 28 27 26 26 26 25 24 23 22 21 20 20 19 19 19 18 18 17 17
37 37 38 39 40 41 41 42 42 41 41 40 39 38 37 36 36 35 34 33 33 32 32 31 31 30 29 29 29 28 27 26 25 24 24 23 22 21 21 20 20 19 19 18
41 41 43 44 44 44 44 45 45 45 44 44 43 42 41 40 39 38 38 37 36 35 34 33 33 33 32 31 31 30 29 28 28 27 26 25 24 24 23 22 22 21 21 20
44 45 46 46 47 48 48 48 48 48 47 47 46 45 44 43 43 42 41 40 39 38 38 37 36 35 34 34 33 32 32 31 30 29 28 27 27 26 25 25 24 23 23 23
47 48 48 49 50 50 50 50 50 50 49 49 48 48 47 47 45 45 44 43 43 42 41 40 39 37 36 36 35 35 34 33 32 31 31 29 29 28 28 27 26 26 25 25
50 51 51 51 52 52 52 52 52 51 51 50 50 49 49 49 48 47 47 46 45 45 43 42 42 40 39 38 37 37 36 35 34 34 32 32 31 30 30 29 28 28 27 27
51 53 53 53 53 53 52 52 52 52 51 51 50 50 50 49 49 48 48 48 47 47 46 45 44 42 41 40 40 39 38 37 36 35 34 34 33 32 31 31 30 30 29 29
53 54 54 53 53 53 52 52 52 51 51 51 50 50 50 50 49 49 49 49 48 48 47 46 46 44 44 43 42 41 40 38 38 37 36 36 35 34 33 33 32 31 30 30
54 53 54 54 53 53 52 52 51 51 50 50 50 49 49 49 50 49 49 49 49 48 48 48 47 46 45 44 43 42 41 40 39 39 38 37 36 36 35 34 33 32 32 32
54 53 53 53 52 51 50 50 49 49 49 49 48 48 49 49 49 49 49 49 49 48 48 48 47 47 46 46 45 44 43 42 41 40 39 38 37 37 36 35 34 34 33 33
51 52 51 51 50 50 49 48 48 49 49 49 48 48 48 48 48 48 49 49 48 48 47 47 48 48 47 47 47 46 45 44 43 42 41 40 39 38 37 36 36 35 35 35
50 50 50 50 49 49 49 49 49 48 48 48 47 47 47 47 47 47 48 48 48 48 47 48 48 48 47 47 48 47 46 45 44 43 42 41 40 39 39 38 37 37 37 36
50 50 50 50 50 49 49 48 48 47 47 46 46 45 45 45 45 45 46 47 47 47 47 48 48 48 47 47 48 48 47 46 46 45 44 43 42 41 40 40 39 38 38 38
50 50 50 50 50 49 49 48 47 46 46 45 45 44 44 44 44 44 45 45 46 47 47 47 47 47 47 47 47 48 49 48 47 46 45 44 43 42 42 40 39 39 39 38
50 50 50 49 48 48 48 47 46 46 45 44 43 43 42 42 42 43 43 44 45 45 46 45 46 47 47 47 47 48 49 48 47 46 45 44 44 43 42 41 41 40 40 40
49 49 48 48 47 47 46 45 44 44 43 42 41 40 40 40 40 40 41 41 42 43 43 43 44 44 45 46 47 48 49 49 47 46 46 45 44 44 43 42 41 41 40 40
49 48 47 47 46 45 44 42 41 40 40 40 39 38 38 38 38 38 39 39 39 40 41 42 43 44 44 45 46 47 48 49 48 48 46 46 46 45 44 43 42 42 42 41
46 45 44 43 42 41 40 39 38 37 37 37 36 36 36 36 36 36 36 36 36 37 38 39 41 43 44 45 46 46 47 47 48 48 48 47 46 46 45 44 43 42 42 42
41 40 39 38 38 37 37 37 36 36 35 36 34 33 33 33 33 33 34 35 35 36 36 37 39 40 42 42 43 45 46 47 47 48 48 47 46 45 44 44 44 43 42 41
Wind_Direction
285 285 286 289 289 287 284 282 279 277 276 278 279 281 281 278 275 273 269 267 266 265 266 270 275 281 289 297 305 314 322 331 338 344 349 353 356 359 2 5 7 9 11 14
293 291 289 289 289 286 284 284 282 279 277 275 279 282 281 277 273 271 268 266 266 265 264 266 271 276 281 288 294 302 311 319 328 334 340 345 349 352 356 359 2 4 6 8
295 292 292 293 293 289 287 285 284 281 279 276 277 280 278 275 272 270 268 266 265 265 264 264 267 271 275 279 284 291 299 307 316 323 330 336 339 343 347 351 354 357 0 2
297 294 293 296 290 288 285 283 280 279 278 276 275 275 276 274 272 269 267 266 265 265 263 264 265 267 270 273 277 282 288 296 303 311 318 325 330 333 337 341 344 346 349 352
299 295 295 295 290 288 285 283 279 278 276 274 273 273 273 273 271 269 267 265 264 264 263 262 263 265 267 269 272 276 281 287 293 300 306 313 320 325 328 330 333 336 338 340
299 297 296 295 289 288 285 280 279 278 277 275 272 271 271 272 271 269 266 265 264 264 263 261 261 263 265 266 268 271 275 279 285 290 296 302 308 314 318 322 324 326 328 329
295 294 292 290 289 288 282 282 283 281 279 277 273 272 270 269 268 268 267 265 263 263 262 261 261 262 264 264 265 267 270 274 278 283 287 293 298 303 308 312 315 318 320 322
291 289 287 288 286 283 281 280 279 279 278 276 274 272 270 269 267 265 264 263 263 262 262 261 261 261 262 263 263 264 266 270 273 277 281 286 290 295 300 304 307 310 312 314
288 286 286 284 284 282 280 278 277 277 277 276 275 272 270 268 266 265 263 262 261 261 261 261 261 261 261 261 262 262 264 267 269 272 276 280 285 289 294 297 301 303 306 307
287 285 283 282 281 281 279 278 278 276 275 275 274 272 270 267 265 263 262 262 261 260 260 260 260 261 261 260 260 261 262 264 266 269 272 276 279 283 287 291 294 298 301 302
285 284 282 281 280 279 279 278 277 275 273 272 271 270 268 266 264 262 261 260 260 259 259 259 259 259 259 259 258 259 260 262 264 266 268 271 275 279 282 285 289 292 295 297
287 285 284 283 281 279 277 276 275 275 273 272 271 269 268 266 264 263 261 260 259 258 258 258 258 257 257 257 257 258 259 260 262 264 266 268 271 274 277 281 284 288 291 293
287 286 284 283 282 280 279 278 277 275 274 271 269 268 267 266 264 263 261 259 259 257 257 256 256 256 256 256 256 257 258 259 260 262 264 266 268 271 274 277 280 283 286 289
287 286 285 284 283 282 281 279 278 276 274 273 271 268 266 265 263 262 261 259 258 257 256 255 255 255 255 255 255 256 257 258 259 260 262 264 265 268 271 274 277 280 283 285
287 286 285 283 282 282 281 280 278 277 276 274 271 269 266 265 263 261 260 259 258 257 256 255 254 253 253 253 254 255 256 257 258 259 260 262 264 266 269 272 275 278 280 283
289 287 285 284 282 281 281 279 278 277 275 274 271 269 267 265 263 261 259 258 257 256 255 255 253 252 251 251 252 252 254 255 256 257 259 260 262 265 267 269 272 275 278 281
289 287 285 284 283 282 281 279 278 277 276 274 272 270 267 265 263 261 259 258 257 255 254 254 253 251 250 250 250 250 251 252 254 256 257 259 261 263 265 268 270 273 276 278
289 288 287 286 285 283 282 281 279 278 277 275 273 270 267 265 263 261 259 257 256 254 253 252 252 251 249 248 248 248 249 250 252 254 256 258 260 262 264 266 269 271 274 276
289 289 288 286 284 282 282 282 281 280 278 276 274 271 268 265 264 261 258 256 255 254 253 252 251 250 249 247 247 247 247 248 249 251 253 255 257 259 262 264 267 269 272 275
289 288 287 286 284 283 283 283 282 281 279 278 276 273 270 267 265 262 259 256 255 253 252 251 250 249 249 248 246 245 246 246 247 249 251 253 255 257 260 263 266 269 272 274
290 289 288 286 285 284 283 282 282 281 280 278 276 275 272 269 266 264 261 256 254 253 252 251 250 248 248 248 246 244 244 245 246 247 249 251 254 256 259 262 265 268 271 273
290 290 289 287 286 284 283 282 282 282 280 279 276 275 273 270 267 264 261 257 254 253 251 250 249 248 246 246 246 245 243 244 245 247 248 250 253 256 259 261 264 267 269 272
290 290 289 288 286 285 283 282 282 282 281 280 278 276 273 271 268 264 261 257 254 252 251 249 247 246 245 244 244 244 243 243 244 246 248 250 252 255 258 260 262 265 269 271
291 290 289 288 287 286 284 282 281 281 280 280 279 277 274 270 266 263 261 258 254 252 250 247 244 244 244 243 242 242 242 242 243 244 246 248 251 254 256 259 262 265 268 271
291 291 290 289 288 287 285 283 282 281 280 279 278 276 273 270 265 261 259 257 254 251 249 246 243 241 241 241 241 241 241 241 243 245 247 248 251 253 255 259 262 265 267 270
291 291 290 289 288 286 284 282 281 281 280 278 276 274 272 269 267 261 257 254 251 249 247 244 242 241 240 240 240 241 241 240 241 243 245 248 250 252 255 258 261 263 266 269
290 292 292 290 288 286 284 283 281 280 278 277 276 274 272 271 267 263 258 254 250 248 246 244 242 241 240 240 240 239 240 240 241 243 245 247 249 252 255 257 260 263 266 269
Height
5817 5817 5816 5815 5815 5814 5814 5813 5813 5813 5812 5812 5810 5810 5809 5809 5808 5808 5809 5808 5809 5809 5809 5809 5809 5808 5808 5807 5806 5804 5803 5801 5799 5797 5794 5792 5789 5786 5784 5781 5778 5775 5772 5770
5814 5814 5813 5812 5812 5811 5810 5810 5809 5808 5809 5808 5806 5806 5805 5805 5805 5805 5805 5805 5805 5805 5805 5805 5805 5805 5805 5804 5803 5802 5801 5800 5798 5796 5794 5791 5789 5786 5784 5781 5778 5776 5773 5771
5811 5810 5809 5809 5809 5807 5807 5806 5805 5804 5804 5803 5802 5802 5801 5801 5801 5801 5801 5801 5801 5801 5801 5801 5801 5801 5801 5800 5800 5799 5799 5797 5796 5794 5792 5790 5788 5786 5783 5781 5778 5776 5774 5771
5806 5807 5805 5808 5804 5803 5802 5801 5800 5799 5798 5798 5798 5797 5796 5796 5796 5796 5796 5796 5796 5796 5797 5797 5797 5797 5797 5797 5796 5796 5795 5794 5793 5792 5790 5788 5786 5784 5782 5780 5778 5776 5773 5771
5802 5801 5800 5801 5799 5798 5797 5796 5794 5793 5792 5792 5792 5792 5791 5791 5791 5791 5791 5791 5791 5791 5791 5792 5792 5792 5792 5792 5792 5792 5791 5791 5790 5789 5788 5786 5784 5782 5780 5778 5777 5774 5772 5770
5797 5795 5795 5796 5793 5791 5791 5789 5787 5786 5786 5786 5786 5786 5786 5785 5785 5785 5785 5785 5785 5785 5786 5786 5786 5787 5787 5787 5787 5787 5787 5786 5786 5785 5784 5783 5781 5780 5778 5776 5774 5772 5771 5769
5791 5789 5788 5787 5785 5785 5785 5782 5780 5779 5778 5779 5779 5779 5779 5779 5779 5779 5779 5779 5779 5779 5779 5779 5780 5780 5781 5781 5782 5782 5781 5781 5781 5780 5780 5779 5777 5776 5775 5773 5771 5770 5768 5766
5785 5783 5783 5779 5777 5777 5776 5773 5771 5770 5770 5770 5770 5770 5770 5771 5771 5771 5771 5772 5772 5772 5772 5772 5773 5773 5774 5774 5775 5775 5775 5775 5775 5775 5775 5774 5773 5772 5771 5769 5768 5766 5765 5763
5777 5776 5773 5770 5768 5767 5765 5764 5762 5761 5761 5760 5761 5761 5762 5762 5762 5762 5763 5763 5763 5764 5764 5765 5765 5766 5766 5767 5767 5768 5768 5769 5769 5769 5769 5768 5768 5767 5766 5765 5763 5762 5761 5759
5767 5765 5762 5760 5758 5756 5755 5753 5752 5751 5751 5750 5750 5750 5751 5751 5752 5752 5753 5753 5754 5755 5755 5756 5757 5757 5758 5758 5759 5760 5761 5761 5762 5762 5762 5762 5762 5761 5760 5759 5758 5757 5756 5754
5755 5754 5751 5748 5746 5744 5743 5741 5740 5739 5738 5738 5738 5738 5738 5739 5740 5741 5741 5742 5743 5744 5745 5746 5747 5748 5749 5749 5750 5751 5752 5753 5754 5754 5755 5755 5755 5755 5754 5753 5752 5751 5750 5749
5742 5740 5737 5735 5732 5730 5728 5727 5726 5725 5725 5724 5724 5724 5724 5725 5726 5728 5729 5730 5731 5732 5733 5735 5736 5737 5739 5739 5740 5741 5742 5744 5745 5746 5746 5747 5747 5747 5747 5746 5745 5745 5744 5743
5727 5724 5721 5719 5717 5714 5713 5712 5710 5709 5709 5709 5709 5708 5709 5710 5712 5713 5715 5716 5717 5719 5721 5722 5724 5726 5727 5729 5730 5731 5732 5734 5735 5736 5737 5738 5738 5739 5739 5739 5738 5737 5736 5736
5712 5709 5706 5704 5701 5699 5697 5695 5694 5693 5692 5692 5692 5692 5693 5694 5696 5697 5699 5701 5702 5704 5707 5709 5711 5713 5715 5717 5718 5720 5721 5723 5725 5726 5727 5728 5729 5730 5730 5730 5730 5729 5729 5728
5696 5692 5690 5687 5685 5682 5680 5678 5677 5676 5675 5675 5675 5675 5676 5677 5679 5681 5682 5684 5687 5689 5692 5694 5697 5700 5702 5704 5706 5708 5710 5712 5713 5715 5716 5718 5719 5720 5720 5721 5721 5720 5720 5720
5679 5676 5672 5670 5668 5665 5663 5661 5660 5659 5658 5658 5658 5658 5659 5660 5662 5664 5666 5668 5670 5673 5676 5679 5682 5685 5687 5690 5692 5695 5698 5700 5701 5703 5705 5706 5708 5709 5710 5711 5711 5711 5711 5710
5661 5659 5655 5653 5650 5648 5646 5644 5642 5642 5641 5641 5641 5641 5642 5643 5645 5647 5649 5651 5653 5656 5660 5663 5666 5669 5672 5675 5678 5681 5684 5687 5689 5691 5693 5695 5696 5698 5699 5700 5701 5701 5701 5701
5644 5641 5638 5635 5633 5631 5630 5628 5626 5625 5624 5624 5624 5624 5625 5626 5628 5630 5632 5634 5637 5640 5644 5647 5650 5653 5657 5660 5663 5667 5670 5673 5676 5679 5681 5683 5685 5686 5687 5689 5690 5690 5691 5690
5628 5625 5622 5620 5617 5615 5613 5612 5610 5609 5608 5607 5607 5607 5608 5609 5611 5612 5615 5617 5620 5624 5628 5630 5634 5637 5641 5645 5648 5652 5656 5659 5662 5665 5668 5670 5672 5674 5676 5677 5678 5679 5679 5679
5613 5610 5607 5604 5602 5600 5598 5597 5595 5594 5592 5591 5591 5591 5591 5592 5594 5595 5597 5600 5604 5607 5611 5613 5617 5621 5625 5629 5633 5637 5641 5644 5648 5651 5654 5657 5659 5661 5663 5665 5666 5668 5668 5668
5599 5595 5592 5589 5587 5584 5583 5581 5579 5578 5577 5576 5575 5575 5575 5576 5577 5578 5580 5584 5588 5591 5594 5597 5601 5605 5610 5614 5618 5622 5626 5630 5634 5637 5641 5644 5646 5649 5651 5653 5654 5656 5656 5656
5583 5580 5576 5573 5571 5569 5567 5565 5564 5562 5561 5560 5559 5559 5559 5560 5561 5562 5565 5567 5571 5574 5577 5581 5585 5589 5593 5598 5602 5606 5611 5615 5619 5624 5627 5630 5633 5636 5638 5640 5642 5643 5644 5644
5568 5564 5561 5558 5555 5553 5552 5550 5548 5547 5546 5545 5544 5544 5544 5544 5545 5547 5550 5552 5554 5558 5561 5565 5569 5573 5578 5582 5586 5591 5596 5600 5605 5609 5614 5617 5620 5622 5625 5627 5629 5630 5631 5632
5552 5549 5546 5543 5541 5538 5537 5535 5534 5532 5531 5531 5530 5529 5529 5530 5531 5532 5534 5537 5539 5542 5546 5550 5554 5558 5562 5567 5571 5576 5581 5586 5591 5595 5599 5603 5606 5609 5612 5614 5616 5618 5619 5619
5538 5535 5532 5529 5527 5524 5523 5521 5520 5519 5518 5517 5516 5516 5515 5516 5517 5518 5520 5522 5525 5528 5531 5535 5539 5543 5548 5552 5557 5562 5567 5572 5577 5581 5585 5589 5592 5596 5599 5601 5603 5605 5606 5607
5524 5521 5518 5516 5513 5511 5509 5508 5507 5506 5505 5504 5504 5503 5503 5503 5504 5505 5507 5509 5511 5514 5517 5521 5525 5529 5534 5538 5543 5548 5553 5558 5562 5567 5571 5575 5579 5582 5585 5588 5590 5592 5593 5594
5511 5508 5506 5503 5501 5499 5497 5496 5495 5494 5493 5492 5492 5492 5491 5492 5492 5493 5495 5497 5499 5502 5505 5508 5512 5516 5520 5525 5530 5535 5539 5544 5549 5553 5557 5562 5565 5569 5572 5574 5576 5579 5580 5581